Weather History for Miami, FL

Change the Weather History Date:

Saturday, November 3, 2012

  Actual Average Record
Temperature  
Mean Temperature 71 °F 77 °F  
Max Temperature 83 °F 84 °F 89 °F (2009)
Min Temperature 59 °F 70 °F 54 °F (1912)
Degree Days  
Heating Degree Days 0 0  
Month to date heating degree days 0 0  
Since 1 July heating degree days 0 0  
Cooling Degree Days 6 12  
Month to date cooling degree days 18 36  
Year to date cooling degree days 4257 4108  
Growing Degree Days 20 (Base 50)    
Moisture  
Dew Point 51 °F    
Average Humidity 55    
Maximum Humidity 84    
Minimum Humidity 26    
Precipitation  
Precipitation 0.00 in 0.14 in 1.70 in (1932)
Month to date precipitation 0.00 0.42  
Year to date precipitation 85.93 57.01  
Snow  
Snow 0.00 in - - ()
Month to date snowfall 0.0  
Since 1 July snowfall 0.0  
Since 1 September snowfall 0.0  
Snow Depth 0.00 in    
Sea Level Pressure  
Sea Level Pressure 30.10 in    
Wind  
Wind Speed 3 mph (ENE)    
Max Wind Speed 12 mph    
Max Gust Speed 16 mph    
Visibility 10 miles    
Events      
T = Trace of Precipitation, MM = Missing Value Source: NWS Daily Summary

Daily Weather History Graph

Daily Weather History Graph

Search for Another Location

Airport:

Trip Planner

Search our weather history database for the weather conditions in past years. The results will help you decide how hot, cold, wet, or windy it might be!

Date:

Astronomy

Nov. 03, 2012 Rise Set
Actual Time 7:31 AM EDT 6:38 PM EDT
Civil Twilight 7:07 AM EDT 7:01 PM EDT
Nautical Twilight 6:40 AM EDT 7:29 PM EDT
Astronomical Twilight 6:13 AM EDT 7:56 PM EDT
Moon 10:26 PM EDT (11/3) 11:24 AM EDT (11/3)
Length of Visible Light 11h 54m
Length of Day
11h 06m
Waning Gibbous, 80% of the Moon is Illuminated
Nov 3
Waning Gibbous
Nov 6
Last Quarter
Nov 13
New
Nov 20
First Quarter
Nov 28
Full

Hourly Weather History & Observations

Time (EDT) Temp. Dew Point Humidity Pressure Visibility Wind Dir Wind Speed Gust Speed Precip Events Conditions
12:53 AM 64.9 °F 48.9 °F 56% 30.09 in 10.0 mi Calm Calm - N/A   Clear
1:53 AM 63.0 °F 50.0 °F 63% 30.08 in 10.0 mi Calm Calm - N/A   Clear
2:53 AM 62.1 °F 50.0 °F 65% 30.07 in 10.0 mi Calm Calm - N/A   Clear
3:53 AM 62.1 °F 51.1 °F 67% 30.06 in 10.0 mi Calm Calm - N/A   Clear
4:53 AM 62.1 °F 53.1 °F 72% 30.06 in 10.0 mi Calm Calm - N/A   Clear
5:53 AM 62.1 °F 55.0 °F 78% 30.09 in 10.0 mi Calm Calm - N/A   Clear
6:53 AM 63.0 °F 57.0 °F 81% 30.10 in 10.0 mi NNW 4.6 mph - N/A   Clear
7:53 AM 63.0 °F 54.0 °F 72% 30.12 in 10.0 mi Calm Calm - N/A   Partly Cloudy
8:53 AM 68.0 °F 54.0 °F 61% 30.14 in 10.0 mi North 4.6 mph - N/A   Partly Cloudy
9:53 AM 72.0 °F 51.1 °F 48% 30.14 in 10.0 mi North 6.9 mph - N/A   Partly Cloudy
10:53 AM 75.9 °F 51.1 °F 42% 30.15 in 10.0 mi Variable 4.6 mph - N/A   Partly Cloudy
11:53 AM 78.1 °F 48.9 °F 36% 30.14 in 10.0 mi NE 8.1 mph - N/A   Partly Cloudy
12:53 PM 80.1 °F 50.0 °F 35% 30.12 in 10.0 mi Variable 5.8 mph - N/A   Partly Cloudy
1:53 PM 81.0 °F 46.9 °F 30% 30.10 in 10.0 mi Variable 3.5 mph - N/A   Partly Cloudy
2:53 PM 82.9 °F 45.0 °F 26% 30.08 in 10.0 mi Calm Calm - N/A   Partly Cloudy
3:53 PM 81.0 °F 52.0 °F 36% 30.07 in 10.0 mi Variable 5.8 mph - N/A   Scattered Clouds
4:53 PM 80.1 °F 51.1 °F 36% 30.06 in 10.0 mi SSE 6.9 mph - N/A   Partly Cloudy
5:53 PM 78.1 °F 51.1 °F 39% 30.07 in 10.0 mi SE 8.1 mph - N/A   Partly Cloudy
6:53 PM 75.9 °F 52.0 °F 43% 30.09 in 10.0 mi ESE 4.6 mph - N/A   Partly Cloudy
7:53 PM 75.0 °F 50.0 °F 41% 30.09 in 10.0 mi East 3.5 mph - N/A   Clear
8:53 PM 73.0 °F 51.1 °F 46% 30.10 in 10.0 mi Calm Calm - N/A   Clear
9:53 PM 70.0 °F 53.1 °F 55% 30.11 in 10.0 mi Calm Calm - N/A   Clear
10:53 PM 70.0 °F 53.1 °F 55% 30.12 in 10.0 mi Calm Calm - N/A   Clear
11:53 PM 69.1 °F 55.0 °F 61% 30.12 in 10.0 mi Calm Calm - N/A   Clear